Weatherford, Texas, United States (76085)
Lat: 32.76N, Lon: 97.8W
Wx Zone: TXZ117
Local Info
Past Weather Observations for Wednesday, April 27, 2016

NOTE: This archive is for the closest National Weather Service station to Weatherford. Information may differ from the station used for current weather conditions.

Click here for Long-term Archive

Time Weather Temperature Dewpoint Humidity Pressure Winds Precip Visibility
23:53
Clear
61°F / 16°C 52°F / 11°C 72% 29.77 in
(1008 mb)
Calm - 10SM
22:53
Clear
63°F / 17°C 52°F / 11°C 68% 29.77 in
(1008 mb)
NE 3.5 mph
(NE 6 kph)
- 10SM
21:53
Clear
63°F / 17°C 52°F / 11°C 68% 29.77 in
(1008 mb)
ENE 4.6 mph
(ENE 7 kph)
- 10SM
20:53
Clear
64°F / 18°C 52°F / 11°C 64% 29.77 in
(1008 mb)
ENE 5.8 mph
(ENE 9 kph)
- 10SM
19:53
Clear
68°F / 20°C 52°F / 11°C 56% 29.74 in
(1007 mb)
ENE 5.8 mph
(ENE 9 kph)
- 10SM
18:53
Clear
72°F / 22°C 50°F / 10°C 47% 29.71 in
(1006 mb)
ENE 6.9 mph
(ENE 11 kph)
- 10SM
17:53
Clear
79°F / 26°C 46°F / 8°C 32% 29.71 in
(1006 mb)
N 5.8 mph
(N 9 kph)
- 10SM
16:53
Clear
79°F / 26°C 45°F / 7°C 30% 29.71 in
(1006 mb)
NW 4.6 mph
(NW 7 kph)
- 10SM
15:53
Clear
81°F / 27°C 41°F / 5°C 24% 29.71 in
(1006 mb)
W 8.1 mph
(W 13 kph)
- 10SM
14:53
Clear
81°F / 27°C 45°F / 7°C 28% 29.74 in
(1007 mb)
WNW 9.2 mph
(WNW 15 kph)
- 10SM
13:53
Clear
79°F / 26°C 46°F / 8°C 32% 29.74 in
(1007 mb)
W 10.4 mph
(W 17 kph)
- 10SM
12:53
Clear
79°F / 26°C 46°F / 8°C 32% 29.74 in
(1007 mb)
SSW 11.5 mph
(SSW 19 kph)
- 10SM
11:53
Clear
75°F / 24°C 46°F / 8°C 36% 29.74 in
(1007 mb)
NW 16.1 mph
(NW 26 kph)
- 10SM
10:53
Clear
73°F / 23°C 46°F / 8°C 38% 29.71 in
(1006 mb)
W 10.4 mph
(W 17 kph)
- 10SM
09:53
Clear
73°F / 23°C 45°F / 7°C 36% 29.68 in
(1005 mb)
W 15 mph
(W 24 kph)
- 10SM
08:53
Clear
66°F / 19°C 55°F / 13°C 68% 29.68 in
(1005 mb)
W 5.8 mph
(W 9 kph)
- 10SM
07:53
Clear
59°F / 15°C 57°F / 14°C 94% 29.68 in
(1005 mb)
Calm - 10SM
07:09
Partly Cloudy
55°F / 13°C 55°F / 13°C 100% 29.68 in
(1005 mb)
S 4.6 mph
(S 7 kph)
- 10SM
07:02
Partly Cloudy
Fog And Mist
55°F / 13°C 55°F / 13°C 100% 29.68 in
(1005 mb)
S 4.6 mph
(S 7 kph)
- 2 1/2SM
06:53
Obscured
Fog
54°F / 12°C 54°F / 12°C 100% 29.68 in
(1005 mb)
SE 5.8 mph
(SE 9 kph)
- 1/4SM
06:46
Partly Cloudy
54°F / 12°C 54°F / 12°C 100% 29.68 in
(1005 mb)
SE 4.6 mph
(SE 7 kph)
- 10SM
06:39
Partly Cloudy
Fog And Mist
54°F / 12°C 54°F / 12°C 100% 29.65 in
(1004 mb)
SW 4.6 mph
(SW 7 kph)
- 1 3/4SM
05:53
Obscured
Fog
54°F / 12°C 54°F / 12°C 100% 29.65 in
(1004 mb)
SE 3.5 mph
(SE 6 kph)
- 1/4SM
04:53
Obscured
Fog
54°F / 12°C 54°F / 12°C 100% 29.65 in
(1004 mb)
Calm - 1/4SM
04:50
Obscured
Fog
54°F / 12°C 54°F / 12°C 100% 29.65 in
(1004 mb)
Calm - 1/4SM
04:25
Obscured
Fog And Mist
54°F / 12°C 54°F / 12°C 100% 29.65 in
(1004 mb)
Calm - 3/4SM
04:18
Clear
Fog And Mist
55°F / 13°C 54°F / 12°C 94% 29.65 in
(1004 mb)
Calm - 1 3/4SM
03:53
Clear
57°F / 14°C 55°F / 13°C 94% 29.65 in
(1004 mb)
S 5.8 mph
(S 9 kph)
- 7SM
02:53
Partly Cloudy
57°F / 14°C 57°F / 14°C 100% 29.62 in
(1003 mb)
SE 6.9 mph
(SE 11 kph)
- 7SM
02:50
Partly Cloudy
57°F / 14°C 57°F / 14°C 100% 29.62 in
(1003 mb)
SE 5.8 mph
(SE 9 kph)
- 7SM
02:44
Mostly Cloudy
Fog And Mist
57°F / 14°C 57°F / 14°C 100% 29.62 in
(1003 mb)
SSE 8.1 mph
(SSE 13 kph)
- 2SM
02:28
Obscured
Fog
57°F / 14°C 57°F / 14°C 100% 29.62 in
(1003 mb)
SE 6.9 mph
(SE 11 kph)
- 1/4SM
02:16
Obscured
Fog
57°F / 14°C 57°F / 14°C 100% 29.62 in
(1003 mb)
SE 9.2 mph
(SE 15 kph)
- 1/4SM
02:01
Obscured
Fog And Mist
57°F / 14°C 57°F / 14°C 100% 29.59 in
(1002 mb)
SE 8.1 mph
(SE 13 kph)
- 3/4SM
01:53
Obscured
Fog And Mist
57°F / 14°C 57°F / 14°C 100% 29.59 in
(1002 mb)
E 4.6 mph
(E 7 kph)
- 1SM
01:49
Obscured
Fog
57°F / 14°C 57°F / 14°C 100% 29.59 in
(1002 mb)
E 3.5 mph
(E 6 kph)
- 1/2SM
01:23
Obscured
Fog
57°F / 14°C 57°F / 14°C 100% 29.59 in
(1002 mb)
N 3.5 mph
(N 6 kph)
- 1/4SM
01:14
Partly Cloudy
Fog And Mist
57°F / 14°C 57°F / 14°C 100% 29.59 in
(1002 mb)
N 8.1 mph
(N 13 kph)
- 1 3/4SM
00:53
Clear
57°F / 14°C 57°F / 14°C 100% 29.59 in
(1002 mb)
Calm - 10SM
Time Weather Temperature Dewpoint Humidity Pressure Winds Precip Visibility


Weather for websites

WeatherForYou.com, LLC is not responsible for any damages or problems caused by this service. Current weather conditions are obtained from the closest station including government and personal stations which may have varying degrees of accuracy. Weather forecasts are derived from the NOAA NDFD. Like all things, this site belongs to Jesus Christ... He just trusts us to maintain it. If you have any questions or comments email webmaster@weatherforyou.com

Copyright © 2016, WeatherForYou.com LLC. All rights reserved.